Find Fifi

NORAD ID: 59135 Int'l Des: 2024-043 Owner: ASPLB Country: B operational
LEOCIRCULARRETROGRADESSO

リアルタイム位置

3D地球を読み込み中...

Fifiについて

説明を読み込み中...

次回通過

Passes for default location (London). Set your location on the main map for personalized predictions.

高度履歴

Loading altitude history...

軌道要素

1 59135U 24043AP 26104.90499178 .00002620 00000-0 10274-3 0 9993
2 59135 97.5320 240.7131 0011890 101.6816 258.5757 15.26616766117331
Epoch: Apr 14, 2026 • Age: 6 hours

現在のステータス

高度 487.9 km
速度 7.62 km/s
衛星直下点 12.98°N, 25.13°W
打ち上げ日 Mar 4, 2024
運用期間 2.1 years
タイプ other

技術仕様

分類 Payload
質量 200.00 kg
乾燥質量 200.00 kg
総質量 200.00 kg
長さ 1.00 m
直径 0.50 m
スパン 3.00 m
形状 Box + 2 pan
製造者 ASPLB
バスタイプ Aerosp
フェーズステータス In Orbit
所有者/国 ASPLB/B

Most Searched